Stations météo

Publicité
Chartres, France (7143): Température de l'air & dewpoint: 08.07.2020 18:00:00 - 14.07.2020 18:00:00 (CEST)Chartres, France (7143): Température de l'air 5cm: 08.07.2020 18:00:00 - 14.07.2020 18:00:00 (CEST)Chartres, France (7143): Température de l'air -20cm & Température de l'air -100cm: 08.07.2020 18:00:00 - 14.07.2020 18:00:00 (CEST)Chartres, France (7143): Vitesse du vent & gusts: 08.07.2020 18:00:00 - 14.07.2020 18:00:00 (CEST)Chartres, France (7143): Direction du vent: 08.07.2020 18:00:00 - 14.07.2020 18:00:00 (CEST)Chartres, France (7143): reduced air pressure: 08.07.2020 18:00:00 - 14.07.2020 18:00:00 (CEST)Chartres, France (7143): visibility: 08.07.2020 18:00:00 - 14.07.2020 18:00:00 (CEST)Chartres, France (7143): Ensoleillement: 08.07.2020 18:00:00 - 14.07.2020 18:00:00 (CEST)Chartres, France (7143): Quantités de précipitations: 08.07.2020 18:00:00 - 14.07.2020 18:00:00 (CEST)
Date & Time tt [°C] td [°C] tt 5cm [°C] tt -20cm [°C] tt -100cm [°C] ff [km/h] ff [knt] fx [km/h] fx [knt] dd ppp [hPa] vv [km] sd [min] rr [mm]
14.07.2020 18:00:00 22,6 12,8 22,7 20,6 17,4 5 3 18 10 WNW 1015,3 20 1 0,0
14.07.2020 17:00:00 20,9 13,8 22,2 20,6 17,5 11 6 26 14 NNW 1015,9 20 0 0,0
14.07.2020 16:00:00 21,6 13,5 22,8 20,4 17,4 9 5 22 12 NW 1016,1 20 6 0,0
14.07.2020 15:00:00 22,3 13,1 24,3 20,2 17,4 10 5 23 12 W 1016,4 20 21 0,0
14.07.2020 14:00:00 21,4 13,8 22,2 20,0 17,4 13 7 23 12 WNW 1017,2 20 26 0,0
14.07.2020 13:00:00 17,8 13,5 14,5 20,0 17,4 5 3 16 8 W 1017,9 20 0 0,4
14.07.2020 12:00:00 14,7 12,0 14,6 20,0 17,4 11 6 27 15 WNW 1018,9 6 0 0,8
14.07.2020 11:00:00 19,5 9,1 21,3 19,9 17,4 13 7 25 14 W 1018,3 20 0 0,0
14.07.2020 10:00:00 19,2 8,5 20,1 19,9 17,4 9 5 16 9 W 1018,5 20 5 0,0
14.07.2020 09:00:00 17,8 8,6 15,4 20,0 17,4 5 3 9 5 W 1018,7 20 34 0,0
14.07.2020 08:00:00 15,3 8,8 12,6 20,2 17,4 2 1 5 3 W 1018,8 20 37 0,0
14.07.2020 07:00:00 13,2 8,3 11,2 20,4 17,4 2 1 6 3 NW 1019,2 20 6 0,0
14.07.2020 06:00:00 13,2 8,1 11,5 20,5 17,4 4 2 13 7 NW 1019,4 20 0 0,0
14.07.2020 05:00:00 13,5 7,7 11,1 20,7 17,4 6 4 11 6 NW 1019,4 20 0 0,0
14.07.2020 04:00:00 14,8 7,8 13,4 20,9 17,4 5 3 12 7 N 1019,6 20 0 0,0
14.07.2020 03:00:00 14,7 7,5 13,4 21,0 17,4 5 3 11 6 NNW 1020,1 20 0 0,0
14.07.2020 02:00:00 15,9 7,1 14,8 21,2 17,4 9 5 14 7 N 1020,4 20 0 0,0
14.07.2020 01:00:00 17,2 7,0 16,0 21,4 17,4 9 5 16 9 N 1020,5 20 0 0,0
14.07.2020 00:00:00 18,7 6,2 17,4 21,5 17,4 11 6 22 12 N 1020,5 20 0 0,0
13.07.2020 23:00:00 20,4 6,7 19,5 21,7 17,4 14 8 24 13 N 1020,6 20 0 0,0
13.07.2020 22:00:00 21,7 7,1 20,6 21,7 17,4 11 6 25 13 N 1020,2 20 0 0,0
13.07.2020 21:00:00 23,8 4,7 23,2 21,8 17,4 10 5 21 11 N 1019,7 20 36 0,0
13.07.2020 20:00:00 25,6 4,7 27,9 21,7 17,4 10 5 21 11 N 1019,7 20 49 0,0
13.07.2020 19:00:00 25,6 4,1 28,1 21,6 17,4 9 5 27 15 NNW 1019,9 20 44 0,0
13.07.2020 18:00:00 27,1 4,2 31,1 21,3 17,4 6 3 22 12 N 1020,1 20 53 0,0
13.07.2020 17:00:00 26,8 3,9 34,1 21,0 17,3 14 8 27 15 N 1020,7 20 60 0,0
13.07.2020 16:00:00 26,3 4,1 33,6 20,7 17,3 11 6 30 16 N 1021,2 20 60 0,0
13.07.2020 15:00:00 26,0 5,5 33,4 20,3 17,3 12 7 27 15 N 1021,6 20 60 0,0
13.07.2020 14:00:00 25,1 5,3 33,8 20,0 17,4 10 6 29 16 NNE 1022,5 20 60 0,0
13.07.2020 13:00:00 24,1 3,4 31,6 19,7 17,3 10 6 23 12 N 1023,2 20 60 0,0
13.07.2020 12:00:00 23,1 5,5 30,6 19,5 17,3 12 6 27 14 N 1023,4 20 60 0,0
13.07.2020 11:00:00 22,4 7,8 27,7 19,4 17,3 14 8 29 16 N 1023,8 20 60 0,0
13.07.2020 10:00:00 20,7 9,0 24,0 19,5 17,3 13 7 19 11 N 1024,1 20 60 0,0
13.07.2020 09:00:00 17,5 9,1 18,4 19,6 17,3 9 5 20 11 N 1024,3 20 60 0,0
13.07.2020 08:00:00 14,8 8,7 11,6 19,7 17,3 10 6 17 9 N 1024,4 20 60 0,0
13.07.2020 07:00:00 12,5 7,8 10,5 19,9 17,4 8 4 14 8 NNW 1024,4 20 11 0,0
13.07.2020 06:00:00 12,2 7,5 10,5 20,1 17,3 9 5 14 8 N 1024,1 20 0 0,0
13.07.2020 05:00:00 12,7 7,4 11,1 20,2 17,3 9 5 16 9 N 1024,1 20 0 0,0
13.07.2020 04:00:00 13,5 7,5 12,0 20,4 17,3 9 5 15 8 N 1024,3 20 0 0,0
13.07.2020 03:00:00 14,3 7,8 12,4 20,6 17,3 11 6 15 8 N 1024,7 20 0 0,0
13.07.2020 02:00:00 15,0 7,8 13,3 20,8 17,3 10 5 18 10 N 1024,7 20 0 0,0
13.07.2020 01:00:00 15,9 6,6 14,2 20,9 17,3 10 5 16 8 N 1024,6 20 0 0,0
13.07.2020 00:00:00 17,6 6,8 15,0 21,1 17,3 8 4 15 8 N 1024,3 20 0 0,0
12.07.2020 23:00:00 19,2 6,3 17,4 21,2 17,3 9 5 15 8 NNE 1024,1 20 0 0,0
12.07.2020 22:00:00 20,6 6,2 19,0 21,3 17,3 9 5 16 9 NNE 1023,5 20 21 0,0
12.07.2020 21:00:00 22,7 5,6 22,7 21,3 17,3 10 6 23 12 NNE 1023,2 20 46 0,0
12.07.2020 20:00:00 24,4 5,2 29,1 21,3 17,3 14 8 26 14 NNE 1023,0 20 60 0,0
12.07.2020 19:00:00 24,3 5,1 28,1 21,1 17,3 15 8 37 20 NNE 1023,2 20 57 0,0
12.07.2020 18:00:00 24,9 5,6 29,8 20,9 17,3 11 6 27 15 NE 1023,4 20 60 0,0
12.07.2020 17:00:00 24,3 5,1 29,1 20,6 17,3 12 7 30 16 NE 1024,0 20 52 0,0
12.07.2020 16:00:00 24,8 6,0 32,0 20,3 17,3 8 4 25 13 NE 1024,4 20 60 0,0
12.07.2020 15:00:00 23,5 6,7 32,3 19,9 17,3 13 7 40 21 NNE 1024,9 20 60 0,0
12.07.2020 14:00:00 23,6 6,8 30,7 19,6 17,3 13 7 31 17 NNE 1025,2 20 60 0,0
12.07.2020 13:00:00 22,3 7,3 30,4 19,3 17,3 10 6 27 15 NNE 1025,6 20 60 0,0
12.07.2020 12:00:00 21,4 8,0 27,9 19,1 17,3 10 5 26 14 N 1025,9 20 56 0,0
12.07.2020 11:00:00 20,0 9,5 25,6 19,0 17,3 10 6 23 13 NNE 1026,5 20 60 0,0
12.07.2020 10:00:00 18,3 9,4 20,6 19,0 17,3 13 7 21 11 NNE 1027,0 20 60 0,0
12.07.2020 09:00:00 15,2 8,4 16,6 19,1 17,3 16 8 26 14 NNE 1027,0 20 60 0,0
12.07.2020 08:00:00 12,9 8,0 9,7 19,3 17,3 11 6 21 11 NNE 1026,8 20 60 0,0
12.07.2020 07:00:00 10,6 7,5 9,1 19,5 17,3 8 4 14 8 N 1026,8 20 13 0,0
12.07.2020 06:00:00 10,2 7,3 9,1 19,6 17,3 8 4 18 10 N 1026,6 20 0 0,0
12.07.2020 05:00:00 10,6 7,3 9,6 19,8 17,3 9 5 16 9 N 1026,5 20 0 0,0
12.07.2020 04:00:00 11,1 7,2 9,7 20,0 17,3 10 5 16 8 N 1026,6 20 0 0,0
12.07.2020 03:00:00 12,1 7,0 10,9 20,2 17,3 9 5 17 9 N 1026,5 20 0 0,0
12.07.2020 02:00:00 13,1 6,2 11,9 20,4 17,3 10 5 22 12 N 1026,5 20 0 0,0
12.07.2020 01:00:00 14,4 5,7 13,1 20,6 17,3 13 7 23 13 N 1026,6 20 0 0,0
12.07.2020 00:00:00 15,5 5,4 14,0 20,8 17,3 12 7 24 13 N 1026,5 20 0 0,0
11.07.2020 23:00:00 17,0 5,0 15,6 20,9 17,3 11 6 27 15 N 1026,4 20 0 0,0
11.07.2020 22:00:00 18,8 4,5 17,7 21,0 17,3 14 7 27 15 N 1025,5 20 25 0,0
11.07.2020 21:00:00 20,9 4,9 21,7 21,0 17,2 14 8 27 14 N 1024,8 20 56 0,0
11.07.2020 20:00:00 22,4 4,4 24,4 21,0 17,3 13 7 26 14 N 1024,4 20 52 0,0
11.07.2020 19:00:00 23,2 4,7 25,2 20,8 17,3 14 8 29 16 N 1024,4 20 53 0,0
11.07.2020 18:00:00 22,8 4,3 25,8 20,6 17,2 16 9 30 16 N 1024,5 20 56 0,0
11.07.2020 17:00:00 23,2 4,7 26,7 20,4 17,3 16 8 30 16 NNE 1024,3 20 56 0,0
11.07.2020 16:00:00 23,2 4,7 29,8 20,0 17,3 14 8 26 14 NE 1024,6 20 60 0,0
11.07.2020 15:00:00 22,8 5,2 28,9 19,7 17,2 10 5 29 16 N 1025,0 20 60 0,0
11.07.2020 14:00:00 21,9 4,4 29,0 19,3 17,2 10 6 29 16 NNW 1025,1 20 60 0,0
11.07.2020 13:00:00 21,0 4,9 25,3 19,1 17,2 9 5 25 14 NNE 1025,5 20 53 0,0
11.07.2020 12:00:00 19,8 4,7 27,4 18,9 17,2 10 6 27 14 N 1025,6 20 60 0,0
11.07.2020 11:00:00 19,1 5,2 22,1 18,8 17,2 10 5 24 13 NNE 1025,6 20 58 0,0
11.07.2020 10:00:00 17,4 8,3 21,4 18,8 17,2 12 6 22 12 NNE 1025,5 20 60 0,0
11.07.2020 09:00:00 15,3 9,9 16,1 18,9 17,3 10 5 19 10 NNE 1025,2 20 60 0,0
11.07.2020 08:00:00 12,5 9,7 9,4 19,1 17,2 10 5 15 8 N 1025,1 20 60 0,0
11.07.2020 07:00:00 10,1 8,5 7,5 19,3 17,2 8 5 14 8 N 1024,7 20 13 0,0
11.07.2020 06:00:00 9,1 7,5 7,4 19,5 17,2 5 3 12 7 NNW 1024,4 20 0 0,0
11.07.2020 05:00:00 9,4 7,2 7,1 19,6 17,2 6 3 13 7 NNW 1024,0 20 0 0,0
11.07.2020 04:00:00 9,8 6,7 7,0 19,9 17,2 5 3 10 6 NNW 1023,8 20 0 0,0
11.07.2020 03:00:00 10,2 6,2 7,7 20,0 17,2 8 4 12 7 N 1023,8 20 0 0,0
11.07.2020 02:00:00 11,3 6,0 8,9 20,2 17,2 4 2 15 8 NW 1023,8 20 0 0,0
11.07.2020 01:00:00 12,4 6,0 10,0 20,4 17,2 8 4 14 8 NNW 1023,2 20 0 0,0
11.07.2020 00:00:00 13,5 5,6 12,0 20,6 17,2 8 4 18 10 NNW 1022,7 20 0 0,0
10.07.2020 23:00:00 15,3 5,5 14,0 20,7 17,2 11 6 30 16 N 1021,7 20 0 0,0
10.07.2020 22:00:00 16,8 5,7 15,7 20,8 17,2 12 7 28 15 N 1020,6 20 24 0,0
10.07.2020 21:00:00 19,0 5,8 19,7 20,9 17,2 16 9 32 17 NNW 1019,8 20 60 0,0
10.07.2020 20:00:00 20,8 6,7 21,7 20,9 17,1 15 8 39 21 NNW 1019,2 20 55 0,0
10.07.2020 19:00:00 21,3 7,1 22,1 20,8 17,1 14 8 35 19 NNW 1018,7 20 28 0,0
10.07.2020 18:00:00 22,5 7,5 22,8 20,7 17,1 12 6 35 19 NNW 1018,4 20 24 0,0
10.07.2020 17:00:00 21,5 7,0 24,4 20,6 17,1 19 10 33 18 N 1018,1 20 38 0,0
10.07.2020 16:00:00 21,0 7,2 23,8 20,5 17,1 13 7 29 15 NNW 1018,5 20 16 0,0
10.07.2020 15:00:00 21,5 8,7 24,1 20,4 17,1 13 7 32 18 NNW 1018,1 20 20 0,0
10.07.2020 14:00:00 20,4 9,6 21,4 20,4 17,1 14 8 33 18 NW 1018,0 20 14 0,0
10.07.2020 13:00:00 20,1 10,8 19,5 20,3 17,1 11 6 34 18 WNW 1017,7 20 5 0,0
10.07.2020 12:00:00 18,5 12,3 18,6 20,3 17,1 14 8 29 16 NW 1017,3 20 0 0,0
10.07.2020 11:00:00 17,1 14,0 16,2 20,4 17,1 11 6 29 15 NW 1016,9 20 0 0,2
10.07.2020 10:00:00 18,6 13,2 19,1 20,4 17,1 11 6 27 14 WNW 1016,0 20 0 0,0
10.07.2020 09:00:00 17,7 13,0 18,2 20,5 17,1 10 6 22 12 WNW 1015,6 20 6 0,0
10.07.2020 08:00:00 16,9 13,4 16,9 20,6 17,1 7 4 21 11 W 1015,2 20 5 0,0
10.07.2020 07:00:00 16,8 13,3 16,6 20,7 17,1 10 5 19 11 WNW 1015,0 20 0 0,0
10.07.2020 06:00:00 17,1 14,2 16,9 20,8 17,0 8 4 18 10 WNW 1014,4 20 0 0,0
10.07.2020 05:00:00 17,8 14,3 17,5 20,9 17,1 5 3 25 14 W 1014,2 20 0 0,0
10.07.2020 04:00:00 18,1 14,8 16,8 21,0 17,0 9 5 19 11 WNW 1014,1 20 0 0,0
10.07.2020 03:00:00 17,9 15,0 16,3 21,2 17,1 5 3 11 6 WNW 1013,9 20 0 0,0
10.07.2020 02:00:00 17,3 14,8 15,7 21,3 17,0 5 3 14 8 NW 1014,3 20 0 0,0
10.07.2020 01:00:00 18,1 14,8 17,3 21,5 17,1 8 5 26 14 N 1014,3 20 0 0,0
10.07.2020 00:00:00 20,4 14,3 19,6 21,6 17,1 13 7 24 13 NNW 1013,9 20 0 0,0
09.07.2020 23:00:00 24,1 9,7 22,8 21,7 17,0 9 5 23 12 WSW 1013,0 20 0 0,0
09.07.2020 22:00:00 26,1 11,1 24,8 21,7 17,0 10 5 27 15 W 1012,3 20 25 0,0
09.07.2020 21:00:00 28,3 10,5 28,4 21,7 17,0 13 7 35 19 WSW 1012,0 20 60 0,0
09.07.2020 20:00:00 29,9 10,9 32,0 21,7 17,0 16 8 39 21 WSW 1011,9 20 60 0,0
09.07.2020 19:00:00 30,2 10,7 32,9 21,5 17,0 19 11 42 23 SW 1012,2 20 60 0,0
09.07.2020 18:00:00 30,9 11,3 35,0 21,3 17,0 18 10 41 22 WSW 1012,6 20 60 0,0
09.07.2020 17:00:00 31,1 11,0 34,5 21,0 17,0 14 8 33 18 WSW 1013,3 20 58 0,0
09.07.2020 16:00:00 30,1 11,6 35,1 20,8 17,0 15 8 37 20 W 1013,8 20 60 0,0
09.07.2020 15:00:00 29,8 11,8 30,2 20,5 17,0 16 9 32 17 WSW 1014,3 20 57 0,0
09.07.2020 14:00:00 28,6 12,1 30,5 20,1 17,0 13 7 34 18 WSW 1014,8 20 47 0,0
09.07.2020 13:00:00 28,4 13,5 29,3 19,9 17,0 17 9 32 17 SW 1015,5 20 54 0,0
09.07.2020 12:00:00 27,1 14,5 30,9 19,6 17,0 11 6 26 14 SW 1015,7 20 60 0,0
09.07.2020 11:00:00 24,6 15,2 29,1 19,5 17,0 8 4 21 12 WSW 1016,4 20 60 0,0
09.07.2020 10:00:00 22,5 14,9 26,0 19,5 17,0 4 2 11 6 SW 1016,9 20 60 0,0
09.07.2020 09:00:00 20,7 14,8 21,8 19,6 17,0 3 2 6 3 SSW 1017,1 20 60 0,0
09.07.2020 08:00:00 18,6 14,3 12,4 19,7 17,0 0 0 3 1 N 1017,1 20 60 0,0
09.07.2020 07:00:00 13,8 12,7 10,4 19,9 17,0 0 0 0 0 N 1017,7 20 1 0,0
09.07.2020 06:00:00 12,6 10,3 10,4 20,0 17,0 0 0 0 0 N 1017,3 20 0 0,0
09.07.2020 05:00:00 13,5 11,7 11,2 20,2 17,0 0 0 3 2 N 1017,5 20 0 0,0
09.07.2020 04:00:00 14,9 13,4 11,7 20,4 17,0 2 1 4 2 NNW 1017,8 20 0 0,0
09.07.2020 03:00:00 14,7 11,8 11,8 20,6 17,0 0 0 5 3 N 1018,1 20 0 0,0
09.07.2020 02:00:00 17,1 13,8 14,3 20,7 16,9 4 2 8 5 NNW 1018,1 20 0 0,0
09.07.2020 01:00:00 17,4 12,7 14,7 20,8 17,0 0 0 8 4 N 1018,0 20 0 0,0
09.07.2020 00:00:00 19,4 14,2 16,5 20,9 17,0 4 2 11 6 NNW 1018,0 20 0 0,0
08.07.2020 23:00:00 21,1 14,3 19,3 21,1 17,0 6 4 12 7 NNW 1017,7 20 0 0,0
08.07.2020 22:00:00 23,0 14,6 22,2 21,0 16,9 6 4 20 11 NW 1017,1 20 11 0,0
08.07.2020 21:00:00 25,0 13,5 24,9 21,0 16,9 11 6 24 13 NW 1016,9 20 16 0,0
08.07.2020 20:00:00 25,5 12,7 26,4 20,9 16,9 11 6 27 15 NW 1016,7 20 26 0,0
08.07.2020 19:00:00 28,0 12,8 31,3 20,7 16,9 7 4 30 16 WNW 1016,7 20 60 0,0
08.07.2020 18:00:00 27,8 13,3 31,7 20,5 16,9 13 7 29 16 WNW 1017,1 20 60 0,0

tt = Température de l'air
td = dewpoint
tt 5cm = Température de l'air 5cm
tt -20cm = Température de l'air -20cm
tt -100cm = Température de l'air -100cm
ff = Vitesse du vent
fx = gusts
dd = Direction du vent
ppp = reduced air pressure
vv = visibility
sd = Ensoleillement
rr = Quantités de précipitations

stations d'obs. à proximité